Location: ????????
(37.6846°N, 24.0673°E)
Time: 15:07:53
(UTC+00:00)

Cosmos 192 - Pass Details

Date: 14 July 2020
Orbit: 702 x 712 km, 74.0° (Epoch: 04 August)

Event Time Altitude Azimuth Distance (km) Brightness Sun altitude
Rises 01:05:11 0° 341° (NNW) 3,098 8.1 -20.3°
Reaches altitude 10° 01:07:31 10° 341° (NNW) 2,175 7.3 -20.0°
Maximum altitude 01:12:26 87° 256° (WSW) 708 4.2 -19.4°
Enters shadow 01:15:57 19° 165° (SSE) 1,635 5.9 -19.0°
